TimePST,TemperatureF,Dew PointF,Humidity,Sea Level PressureIn,VisibilityMPH,Wind Direction,Wind SpeedMPH,Gust SpeedMPH,PrecipitationIn,Events,Conditions,WindDirDegrees,DateUTC
12:56 AM,43.0,39.0,86,30.17,10.0,Calm,Calm,-,N/A,,Clear,0,2012-12-25 08:56:00
1:56 AM,42.1,39.0,89,30.17,10.0,Calm,Calm,-,N/A,,Clear,0,2012-12-25 09:56:00
2:56 AM,42.1,37.9,85,30.16,10.0,Calm,Calm,-,N/A,,Clear,0,2012-12-25 10:56:00
3:56 AM,43.0,37.0,80,30.11,10.0,SE,5.8,-,N/A,,Clear,130,2012-12-25 11:56:00
4:56 AM,43.0,37.0,80,30.09,10.0,Calm,Calm,-,N/A,,Clear,0,2012-12-25 12:56:00
5:56 AM,43.0,37.0,80,30.09,10.0,Calm,Calm,-,N/A,,Clear,0,2012-12-25 13:56:00
6:56 AM,44.1,39.0,82,30.12,10.0,Calm,Calm,-,N/A,,Mostly Cloudy,0,2012-12-25 14:56:00
7:56 AM,43.0,39.0,86,30.13,10.0,WNW,3.5,-,N/A,,Scattered Clouds,290,2012-12-25 15:56:00
8:56 AM,45.0,39.9,82,30.14,10.0,Calm,Calm,-,N/A,,Overcast,0,2012-12-25 16:56:00
9:56 AM,46.0,39.9,79,30.13,10.0,SE,5.8,-,0.01,Rain,Light Rain,140,2012-12-25 17:56:00
10:56 AM,46.0,39.9,79,30.08,10.0,SSE,4.6,-,0.02,Rain,Light Rain,150,2012-12-25 18:56:00
11:56 AM,48.9,39.9,71,30.01,10.0,SE,17.3,-,0.00,Rain,Light Rain,130,2012-12-25 19:56:00
12:56 PM,52.0,44.1,74,29.97,10.0,ESE,6.9,-,0.00,,Clear,120,2012-12-25 20:56:00
1:56 PM,51.1,44.1,77,29.95,7.0,East,6.9,-,0.01,Rain,Light Rain,80,2012-12-25 21:56:00
2:56 PM,55.0,39.9,57,29.90,10.0,SE,12.7,24.2,0.00,,Overcast,140,2012-12-25 22:56:00
3:56 PM,53.1,41.0,64,29.88,10.0,SE,9.2,-,N/A,,Overcast,140,2012-12-25 23:56:00
4:56 PM,52.0,45.0,77,29.88,9.0,SSE,10.4,17.3,0.03,Rain,Light Rain,160,2012-12-26 00:56:00
5:56 PM,51.1,44.1,77,29.86,10.0,SE,15.0,20.7,0.00,Rain,Light Rain,130,2012-12-26 01:56:00
6:56 PM,50.0,46.9,89,29.86,10.0,SE,16.1,25.3,0.02,Rain,Light Rain,140,2012-12-26 02:56:00
7:56 PM,50.0,45.0,83,29.83,10.0,SSE,12.7,24.2,0.00,,Mostly Cloudy,160,2012-12-26 03:56:00
8:39 PM,50.0,46.4,87,29.86,4.0,West,13.8,31.1,0.03,Rain,Rain,270,2012-12-26 04:39:00
8:56 PM,50.0,46.0,86,29.87,8.0,SE,6.9,-,0.04,Rain,Light Rain,140,2012-12-26 04:56:00
9:17 PM,50.0,46.4,87,29.86,10.0,SE,9.2,-,0.00,,Overcast,130,2012-12-26 05:17:00
9:56 PM,48.9,46.9,93,29.88,10.0,SE,5.8,-,0.02,,Overcast,140,2012-12-26 05:56:00
10:56 PM,48.9,46.9,93,29.90,10.0,East,4.6,-,0.07,,Overcast,80,2012-12-26 06:56:00
11:56 PM,48.9,48.0,97,29.91,10.0,WSW,3.5,-,0.00,,Overcast,240,2012-12-26 07:56:00